When you browse on this site, cookies collect data to enhance your experience and personalize the content and advertising you see.
Visit our Privacy Policy to learn more. By continuing to use the site, you agree to this use of cookies and data.
  • In Schweiz
  • Länderverzeichnis
  • Für 7 Tage
  • Wassertemperatur
  • Wetterkarte
  • Widgets
  • user-avatar
    Anmelden

    Stündliche Wetter Enkamp

    Heute, 15 September, Sonntag

    Zeit Temperatur Niederschläge Wind Luftdruck Luftfeuchtigkeit
    00:00 +12°C° 0 mm 2 m/S 630 mmHg 74%
    01:00 +12°C° 0 mm 2 m/S 630 mmHg 72%
    02:00 +12°C° 0 mm 2 m/S 629 mmHg 71%
    03:00 +12°C° 0 mm 2 m/S 629 mmHg 69%
    04:00 +12°C° 0.2 mm 1 m/S 629 mmHg 72%
    05:00 +12°C° 0.2 mm 1 m/S 629 mmHg 75%
    06:00 +12°C° 0.2 mm 1 m/S 629 mmHg 78%
    07:00 +14°C° 0 mm 1 m/S 630 mmHg 72%
    08:00 +18°C° 0 mm 1 m/S 631 mmHg 66%
    09:00 +20°C° 0 mm 1 m/S 632 mmHg 61%
    10:00 +21°C° 0.3 mm 1 m/S 632 mmHg 57%
    11:00 +22°C° 0.3 mm 1 m/S 632 mmHg 53%
    12:00 +23°C° 0.3 mm 2 m/S 632 mmHg 50%
    13:00 +23°C° 0.2 mm 1 m/S 632 mmHg 50%
    14:00 +22°C° 0.2 mm 1 m/S 632 mmHg 50%
    15:00 +22°C° 0.2 mm 1 m/S 631 mmHg 50%
    16:00 +20°C° 0 mm 1 m/S 630 mmHg 58%
    17:00 +18°C° 0 mm 1 m/S 630 mmHg 65%
    18:00 +16°C° 0 mm 1 m/S 629 mmHg 73%
    19:00 +15°C° 0 mm 1 m/S 628 mmHg 73%
    20:00 +14°C° 0 mm 1 m/S 628 mmHg 73%
    21:00 +14°C° 0 mm 1 m/S 628 mmHg 73%
    22:00 +14°C° 0 mm 1 m/S 628 mmHg 71%
    23:00 +13°C° 0 mm 1 m/S 628 mmHg 70%

    Morgen, 16 September, Montag

    Zeit Temperatur Niederschläge Wind Luftdruck Luftfeuchtigkeit
    00:00 +13°C° 0 mm 1 m/S 628 mmHg 68%
    01:00 +13°C° 0 mm 1 m/S 628 mmHg 69%
    02:00 +13°C° 0 mm 1 m/S 627 mmHg 69%
    03:00 +12°C° 0 mm 1 m/S 627 mmHg 69%
    04:00 +12°C° 0.1 mm 1 m/S 627 mmHg 69%
    05:00 +12°C° 0.1 mm 1 m/S 627 mmHg 69%
    06:00 +12°C° 0.1 mm 1 m/S 627 mmHg 68%
    07:00 +15°C° 0 mm 1 m/S 628 mmHg 64%
    08:00 +18°C° 0 mm 1 m/S 629 mmHg 60%
    09:00 +21°C° 0 mm 1 m/S 630 mmHg 55%
    10:00 +21°C° 0.3 mm 1 m/S 630 mmHg 55%
    11:00 +21°C° 0.3 mm 2 m/S 630 mmHg 55%
    12:00 +21°C° 0.3 mm 2 m/S 630 mmHg 55%
    13:00 +21°C° 0.4 mm 2 m/S 630 mmHg 57%
    14:00 +21°C° 0.4 mm 2 m/S 629 mmHg 59%
    15:00 +21°C° 0.4 mm 1 m/S 629 mmHg 61%
    16:00 +19°C° 0.4 mm 1 m/S 628 mmHg 69%
    17:00 +18°C° 0.4 mm 1 m/S 627 mmHg 76%
    18:00 +15°C° 0.4 mm 1 m/S 626 mmHg 84%
    19:00 +14°C° 0 mm 1 m/S 626 mmHg 86%
    20:00 +14°C° 0 mm 1 m/S 626 mmHg 88%
    21:00 +13°C° 0 mm 1 m/S 626 mmHg 90%
    22:00 +13°C° 0 mm 1 m/S 626 mmHg 90%
    23:00 +12°C° 0 mm 2 m/S 626 mmHg 91%

    übermorgen, 17 September, Dienstag

    Zeit Temperatur Niederschläge Wind Luftdruck Luftfeuchtigkeit
    00:00 +12°C° 0 mm 2 m/S 626 mmHg 91%
    01:00 +12°C° 0 mm 1 m/S 625 mmHg 91%
    02:00 +12°C° 0 mm 1 m/S 625 mmHg 90%
    03:00 +11°C° 0 mm 1 m/S 625 mmHg 90%
    04:00 +11°C° 0 mm 1 m/S 625 mmHg 89%
    05:00 +11°C° 0 mm 1 m/S 625 mmHg 88%
    06:00 +11°C° 0 mm 1 m/S 625 mmHg 87%
    07:00 +14°C° 0 mm 1 m/S 626 mmHg 78%
    08:00 +18°C° 0 mm 1 m/S 627 mmHg 70%
    09:00 +18°C° 0 mm 0 m/S 628 mmHg 61%
    10:00 +21°C° 0 mm 1 m/S 628 mmHg 57%
    11:00 +22°C° 0 mm 1 m/S 628 mmHg 53%
    12:00 +23°C° 0 mm 1 m/S 628 mmHg 49%
    13:00 +22°C° 0.4 mm 1 m/S 628 mmHg 55%
    14:00 +21°C° 0.4 mm 1 m/S 627 mmHg 61%
    15:00 +20°C° 0.4 mm 1 m/S 626 mmHg 66%
    16:00 +19°C° 0.5 mm 1 m/S 626 mmHg 73%
    17:00 +15°C° 0.5 mm 0 m/S 625 mmHg 79%
    18:00 +14°C° 0.5 mm 0 m/S 624 mmHg 85%
    19:00 +13°C° 0.2 mm 0 m/S 624 mmHg 86%
    20:00 +13°C° 0.2 mm 0 m/S 624 mmHg 87%
    21:00 +14°C° 0.2 mm 1 m/S 624 mmHg 88%
    22:00 +13°C° 0.6 mm 1 m/S 624 mmHg 88%
    23:00 +13°C° 0.6 mm 1 m/S 624 mmHg 89%

    18 September, Mittwoch

    Zeit Temperatur Niederschläge Wind Luftdruck Luftfeuchtigkeit
    00:00 +12°C° 0.6 mm 1 m/S 624 mmHg 90%
    01:00 +12°C° 0 mm 1 m/S 624 mmHg 89%
    02:00 +12°C° 0 mm 1 m/S 624 mmHg 89%
    03:00 +12°C° 0 mm 1 m/S 623 mmHg 88%
    04:00 +12°C° 0 mm 1 m/S 623 mmHg 88%
    05:00 +11°C° 0 mm 1 m/S 623 mmHg 88%
    06:00 +11°C° 0 mm 1 m/S 623 mmHg 88%
    07:00 +14°C° 0 mm 1 m/S 625 mmHg 79%
    08:00 +16°C° 0 mm 1 m/S 626 mmHg 71%
    09:00 +18°C° 0 mm 0 m/S 627 mmHg 63%
    10:00 +20°C° 0.5 mm 1 m/S 627 mmHg 61%
    11:00 +21°C° 0.5 mm 1 m/S 627 mmHg 60%
    12:00 +21°C° 0.5 mm 1 m/S 627 mmHg 58%
    13:00 +20°C° 1.3 mm 1 m/S 626 mmHg 62%
    14:00 +19°C° 1.3 mm 2 m/S 626 mmHg 65%
    15:00 +18°C° 1.3 mm 2 m/S 626 mmHg 68%
    16:00 +16°C° 1.7 mm 2 m/S 625 mmHg 75%
    17:00 +15°C° 1.7 mm 2 m/S 624 mmHg 82%
    18:00 +13°C° 1.7 mm 2 m/S 624 mmHg 88%
    19:00 +13°C° 1.7 mm 1 m/S 624 mmHg 88%
    20:00 +12°C° 1.7 mm 1 m/S 624 mmHg 87%
    21:00 +11°C° 1.7 mm 1 m/S 624 mmHg 87%
    22:00 +11°C° 0.2 mm 1 m/S 624 mmHg 85%
    23:00 +11°C° 0.2 mm 1 m/S 624 mmHg 82%

    19 September, Donnerstag

    Zeit Temperatur Niederschläge Wind Luftdruck Luftfeuchtigkeit
    00:00 +12°C° 0.2 mm 1 m/S 624 mmHg 80%
    01:00 +11°C° 0 mm 1 m/S 624 mmHg 79%
    02:00 +11°C° 0 mm 1 m/S 624 mmHg 79%
    03:00 +11°C° 0 mm 1 m/S 624 mmHg 79%
    04:00 +11°C° 0 mm 1 m/S 624 mmHg 80%
    05:00 +10°C° 0 mm 1 m/S 624 mmHg 81%
    06:00 +10°C° 0 mm 1 m/S 624 mmHg 82%
    07:00 +12°C° 0.1 mm 1 m/S 625 mmHg 77%
    08:00 +15°C° 0.1 mm 1 m/S 626 mmHg 73%
    09:00 +18°C° 0.1 mm 1 m/S 628 mmHg 68%
    10:00 +18°C° 1.3 mm 1 m/S 628 mmHg 69%
    11:00 +18°C° 1.3 mm 1 m/S 628 mmHg 70%
    12:00 +18°C° 1.3 mm 2 m/S 628 mmHg 72%
    13:00 +18°C° 2 mm 1 m/S 627 mmHg 75%
    14:00 +16°C° 2 mm 1 m/S 627 mmHg 78%
    15:00 +15°C° 2 mm 1 m/S 626 mmHg 82%
    16:00 +14°C° 1.4 mm 1 m/S 626 mmHg 85%
    17:00 +13°C° 1.4 mm 1 m/S 626 mmHg 89%
    18:00 +11°C° 1.4 mm 0 m/S 625 mmHg 92%
    19:00 +12°C° 0.2 mm 1 m/S 626 mmHg 92%
    20:00 +11°C° 0.2 mm 1 m/S 626 mmHg 91%
    21:00 +11°C° 0.2 mm 1 m/S 626 mmHg 91%
    22:00 +11°C° 0 mm 1 m/S 626 mmHg 90%
    23:00 +10°C° 0 mm 1 m/S 626 mmHg 89%

    20 September, Freitag

    Zeit Temperatur Niederschläge Wind Luftdruck Luftfeuchtigkeit
    00:00 +10°C° 0 mm 1 m/S 626 mmHg 89%
    01:00 +10°C° 0 mm 1 m/S 626 mmHg 88%
    02:00 +10°C° 0 mm 1 m/S 626 mmHg 88%
    03:00 +9°C° 0 mm 1 m/S 626 mmHg 88%
    04:00 +9°C° 0 mm 1 m/S 626 mmHg 89%
    05:00 +9°C° 0 mm 1 m/S 626 mmHg 90%
    06:00 +9°C° 0 mm 1 m/S 626 mmHg 90%
    07:00 +11°C° 0 mm 1 m/S 627 mmHg 85%
    08:00 +14°C° 0 mm 1 m/S 628 mmHg 80%
    09:00 +16°C° 0 mm 1 m/S 630 mmHg 74%
    10:00 +16°C° 0.2 mm 1 m/S 630 mmHg 72%
    11:00 +18°C° 0.2 mm 1 m/S 630 mmHg 70%
    12:00 +18°C° 0.2 mm 2 m/S 630 mmHg 67%
    13:00 +17°C° 0.8 mm 2 m/S 629 mmHg 71%
    14:00 +18°C° 0.8 mm 1 m/S 629 mmHg 76%
    15:00 +16°C° 0.8 mm 1 m/S 628 mmHg 80%
    16:00 +15°C° 0.4 mm 1 m/S 628 mmHg 84%
    17:00 +14°C° 0.4 mm 1 m/S 628 mmHg 89%
    18:00 +12°C° 0.4 mm 2 m/S 627 mmHg 93%
    19:00 +12°C° 0 mm 1 m/S 627 mmHg 94%
    20:00 +11°C° 0 mm 1 m/S 627 mmHg 95%
    21:00 +11°C° 0 mm 1 m/S 627 mmHg 96%
    22:00 +11°C° 0 mm 1 m/S 627 mmHg 95%
    23:00 +11°C° 0 mm 1 m/S 627 mmHg 94%
    Mehr zeigen